Location: Eboldshausen
(51.7766°N, 10.0050°E)
Time: 21:28:27
(UTC+00:00)

COSMOS 2455 - Pass Details

Date: 16 August 2025
Orbit: 901 x 908 km, 67.1° (Epoch: 20 April)

Event Time Altitude Azimuth Distance (km) Brightness Sun altitude
Exits shadow 21:24:19 24° 194° (SSW) 1,783 4.0 -19.8°
Maximum altitude 21:27:57 62° 121° (ESE) 1,007 2.8 -20.1°
Drops below altitude 10° 21:33:52 10° 42° (NE) 2,587 5.4 -20.5°
Sets 21:36:23 0° 39° (NE) 3,532 6.2 -20.7°
